SCP
0 0 0 0 0 0 0 0 0 0 0 0 0 0 0 0 0 0 0 0 0 0 0 0 0 0 0 0 0 0 0 0 0 0 0 0 0 0
0 0 0 0 0 0 0 0 0 0 0 0 0 0 0 0 0 0 0 0 0 0 0 0 0 0 0 0 0 0 0 0 0 0 0 0 0 0
0 0 0 0 0 0 0 0 0 0 0 0 0 0 0 0 0 0 0 0 0 0 0 0 0 0 0 0 0 0 0 0 0 0 0 0 0 0
0 0 0 0 0 0 0 0 0 0 0 0 0 0 0 0 0 0 0 0 0 0 0 0 0 0 0 0 0 0 0 0 0 0 0 0 0 0
0 0 0 0 0 0 0 0 0 0 0 0 0 0 0 0 0 0 0 0 0 0 0 0 0 0 0 0 0 0 0 0 0 0 0 0 0 0
0 0 0 0 0 0 0 0 0 0 0 0 0 0 0 0 0 0 0 0 0 0 0 0 0 0 0 0 0 0 0 0 0 0 0 0 0 0
0 0 0 0 0 0 0 0 0 0 0 0 0 0 0 0 0 0 0 0 0 0 0 0 0 0 0 0 0 0 0 0 0 0 0 0 0 0
0 0 0 0 0 0 0 0 0 0 0 0 0 0 0 0 0 0 0 0 0 0 0 0 0 0 0 0 0 0 0 0 0 0 0 0 0 0
0 0 0 0 0 0 0 0 0 0 0 0 0 0 0 0 0 0 0 0 0 0 0 0 0 0 0 0 0 0 0 0 0 0 0 0 0 0
0 0 0 0 0 0 0 0 0 0 0 0 0 0 0 0 0 0 0 0 0 0 0 0 0 0 0 0 0 0 0 0 0 0 0 0 0 0
0 0 0 0 0 0 0 0 0 0 0 0 0 0 0 0 0 0 0 0 0 0 0 0 0 0 0 0 0 0 0 0 0 0 0 0 0 0
0 0 0 0 0 0 0 0 0 0 0 0 0 0 0 0 0 0 0 0 0 0 0 0 0 0 0 0 0 0 0 0 0 0 0 0 0 0
0 0 0 0 -0 -0 -0 0 -0 0 0 0 0 0 0 0 0 0 0 0 0 0 0 0 0 0 0 0 0 0 0 0 0 0 0 0 0 0
-0 0 0 -0 -0 -0 0 -0 0 0 0 0 0 0 0 0 0 0 0 0 0 0 0 0 0 0 0 0 0 0 0 0 0 0 0 0 0 0
-0 -0 -0 -0 0 0 0 0 0 0 0 0 0 0 0 0 0 0 0 0 0 0 0 0 0 0 0 0 0 0 0 0 0 0 0 0 0 0
-0 -0 -0 -0 -0 -0 0 0 0 0 0 0 0 0 0 0 0 0 0 0 0 0 0 0 0 0 0 0 0 0 0 0 0 0 0 0 0 0
0 0 -0 0 0 0 0 0 0 0 0 0 0 0 0 0 0 0 0 0 0 0 0 0 0 0 0 0 0 0 0 0 0 0 0 0 0 0
0 0 0 0 0 0 0 0 0 0 0 0 0 0 0 0 0 0 0 0 0 0 0 0 0 0 0 0 0 0 0 0 0 0 0 0 0 0
0 0 0 0 0 0 0 0 0 0 0 0 0 0 0 0 0 0 0 0 0 0 0 0 0 0 0 0 0 0 0 0 0 0 0 0 0 0
0 0 0 0 0 0 0 0 0 0 0 0 0 0 0 0 0 0 0 0 -0 -0 -0 -0 -0 -0 0 0 0 0 0 0 0 0 0 0 0 0
0 0 0 0 0 0 0 0 0 0 0 0 0 0 0 0 0 -0 -0 0 0 -0 -0 -0 -0 0 0 0 0 0 0 0 0 0 0 0 0 0
0 0 0 0 0 0 0 0 0 0 0 0 0 0 0 0 -0 -0 0 -0 -0 0 0 0 0 0 0 0 0 0 0 0 0 0 0 0 0 0
0 0 0 0 0 0 0 0 0 0 0 0 0 0 0 0 0 -0 0 0 0 0 0 0 0 0 0 0 0 0 0 0 0 0 0 0 0 0
Wind_Speed_500mb
47 44 45 47 47 47 53 63 59 55 66 53 49 52 60 59 61 62 58 60 60 57 54 50 47 46 43 42 42 43 44 43 41 39 37 36 34 34
52 47 44 42 43 44 45 57 56 63 61 63 49 39 46 57 60 60 61 66 60 59 57 54 52 49 46 46 46 46 47 47 48 48 45 44 40 38
53 51 48 41 42 43 42 42 49 54 73 65 55 44 42 49 57 60 61 64 63 63 61 58 55 51 49 48 48 48 50 52 52 51 52 50 46 39
56 53 52 46 43 40 45 47 45 46 61 70 59 56 48 54 59 57 60 63 61 62 63 60 56 52 52 51 51 52 54 55 55 54 53 50 47 43
59 57 56 50 49 44 43 46 48 44 47 56 71 65 48 43 55 61 58 59 54 55 59 59 58 56 55 54 55 57 57 53 53 52 53 51 49 47
54 55 58 55 53 49 48 48 49 49 44 53 55 72 50 44 53 61 60 56 53 49 58 62 62 59 60 56 60 61 55 55 53 53 53 50 49 49
55 59 62 62 60 57 53 49 50 52 50 48 56 62 57 50 61 55 59 58 55 50 49 51 62 65 61 64 63 60 56 55 55 55 53 50 49 48
58 56 58 59 62 61 61 61 57 59 53 54 60 58 74 56 58 53 56 51 45 42 53 49 49 54 57 60 60 54 51 51 51 53 53 54 53 50
58 59 59 57 56 54 53 56 62 66 70 56 65 65 74 69 62 62 61 57 50 41 39 43 43 53 52 54 58 55 54 56 56 55 54 53 55 58
59 59 62 61 55 53 53 56 51 53 67 74 70 62 69 69 69 67 63 53 42 39 44 42 38 47 43 46 51 49 51 55 54 51 49 51 53 52
62 63 64 63 57 56 57 58 59 53 49 67 75 73 61 59 59 62 51 44 42 42 42 44 41 41 38 43 45 46 45 55 58 60 60 59 58 54
63 64 63 60 58 58 59 60 61 54 49 52 59 65 54 64 61 55 56 47 41 35 38 44 38 29 23 33 37 38 48 52 59 63 66 66 66 59
65 63 56 55 58 59 60 59 63 49 55 54 54 65 50 57 62 62 46 44 41 39 28 38 36 31 38 42 39 32 29 32 43 56 64 74 70 62
63 58 55 56 52 52 50 64 60 51 61 66 58 44 46 55 50 54 49 50 49 49 35 40 52 55 55 43 40 40 40 40 40 45 53 62 64 60
66 67 66 64 60 54 54 62 60 61 71 64 55 51 48 42 42 37 40 46 46 44 43 46 48 46 49 46 45 37 30 34 41 45 53 60 62 59
64 72 72 68 63 58 65 60 63 77 62 57 52 41 40 40 38 36 40 41 35 27 20 22 40 49 54 50 47 35 32 25 36 40 44 52 54 54
53 62 69 69 65 53 53 68 70 56 55 48 39 39 39 38 33 36 37 33 30 22 21 8 11 22 28 33 37 32 28 27 29 38 44 48 49 49
42 17 42 43 51 74 68 58 52 48 43 36 34 33 33 33 37 37 34 39 29 26 23 19 18 29 28 30 24 24 29 24 33 35 41 45 48 53
49 65 71 74 71 62 54 53 45 41 41 36 30 29 37 37 35 37 42 43 28 28 24 25 31 31 31 27 25 25 26 33 36 37 40 48 52 62
73 74 72 66 56 46 37 36 36 33 25 25 32 35 33 32 41 47 44 39 32 33 30 27 27 28 31 34 30 30 33 38 39 44 46 48 47 55
62 58 49 43 36 32 31 27 21 21 22 21 22 23 30 42 47 50 42 38 32 30 31 29 28 27 34 31 42 37 31 28 32 35 44 45 52 69
54 49 43 38 33 31 28 24 23 19 13 12 15 23 37 46 56 43 39 39 30 34 38 32 29 28 29 42 43 44 37 39 43 37 51 56 60 53
55 49 40 35 37 33 29 24 23 21 16 14 17 26 39 52 55 41 43 43 36 41 41 39 31 33 41 47 44 41 43 33 40 42 38 40 36 51
Wind_Direction_500mb
263 259 256 254 253 250 243 238 235 245 241 242 238 246 245 244 242 243 237 237 234 236 239 243 246 246 245 247 248 252 256 258 257 259 258 259 260 260
261 261 259 257 255 251 246 244 235 236 251 241 245 240 240 240 243 242 240 237 236 236 237 242 244 244 246 252 254 255 257 257 260 260 259 260 258 258
259 259 261 260 256 253 250 247 242 241 236 247 243 248 236 235 239 240 236 235 236 234 237 240 240 242 250 253 254 256 258 260 262 264 267 266 259 252
259 259 259 261 258 254 249 248 247 239 244 245 242 243 232 241 246 243 236 235 232 237 236 239 240 245 251 254 255 257 260 263 264 264 267 265 257 247
255 255 257 258 259 257 253 249 246 243 241 245 246 233 241 232 229 236 233 233 230 232 237 236 240 249 252 255 258 261 263 263 261 259 258 256 248 246
247 248 256 259 259 257 255 251 247 245 241 247 249 236 233 227 229 228 224 229 229 228 238 237 246 250 253 257 258 262 263 262 260 259 256 253 249 249
249 251 256 259 259 255 251 250 249 244 240 240 247 237 223 220 222 216 224 231 232 230 237 241 242 250 256 258 260 262 262 261 260 257 253 249 246 245
252 253 256 257 259 259 253 249 242 246 237 239 247 237 221 220 230 217 217 213 216 230 233 238 240 248 254 258 264 262 258 256 252 251 249 246 244 241
250 251 254 255 256 253 251 248 246 243 242 250 249 247 232 230 227 218 219 219 219 225 230 239 235 246 253 259 262 262 258 252 252 252 250 245 243 241
251 253 256 257 252 249 247 243 243 243 241 246 252 250 239 225 226 222 225 224 221 217 244 238 241 250 253 256 262 261 250 248 245 241 241 239 239 239
255 256 257 258 254 249 249 252 247 248 240 242 248 252 237 232 231 229 211 204 216 224 229 239 250 252 250 255 259 258 245 241 240 238 237 238 240 236
258 259 258 252 249 247 246 247 245 245 240 240 236 235 231 228 221 216 215 209 215 228 229 229 243 241 254 255 260 253 258 240 236 233 235 234 231 228
258 258 252 249 255 249 248 245 241 245 242 245 246 226 232 212 218 209 210 214 215 224 228 220 235 233 244 262 268 261 241 250 240 235 229 227 225 219
255 254 257 259 254 252 245 238 239 243 241 243 223 214 199 197 200 214 217 225 234 239 229 247 249 261 263 254 250 256 254 252 241 232 225 219 217 210
252 257 259 258 257 251 240 242 247 235 227 213 210 198 193 202 206 210 223 235 240 245 253 251 253 258 256 245 239 249 240 237 230 228 220 215 208 205
250 255 251 249 250 238 255 235 225 211 204 202 190 192 196 198 202 213 224 231 238 231 212 260 268 258 248 241 233 230 232 228 222 216 213 208 200 200
272 266 241 233 225 231 217 194 179 180 181 180 182 192 198 207 208 214 219 221 194 183 191 253 251 211 218 219 204 209 213 208 194 195 192 189 189 189
254 208 183 190 166 160 160 159 163 165 171 179 189 198 202 202 207 210 204 178 177 185 189 189 139 133 159 178 199 200 201 197 183 178 181 180 179 179
137 133 132 141 139 134 133 146 151 168 187 191 196 200 205 203 199 182 174 174 178 182 171 155 158 158 153 152 164 176 179 174 168 170 174 174 169 173
110 116 121 126 127 123 129 150 167 173 179 188 198 202 198 190 173 166 165 171 172 168 157 155 148 147 151 140 147 153 160 164 168 167 168 175 180 175
99 100 101 107 116 126 135 139 144 159 171 186 195 193 184 172 168 165 169 168 157 156 151 151 154 161 147 143 136 143 147 168 170 172 163 164 167 180
104 100 102 105 112 116 120 125 129 132 141 160 173 172 171 167 163 165 160 152 149 156 146 142 148 151 151 151 144 146 129 141 150 169 172 184 182 164
97 96 92 95 105 101 99 104 108 92 94 121 147 162 168 163 161 155 157 158 150 150 153 136 141 142 145 148 150 136 131 161 161 145 150 156 168 166
Wind_Speed_850mb
47 44 45 47 47 47 53 63 59 55 66 53 49 52 60 59 61 62 58 60 60 57 54 50 47 46 43 42 42 43 44 43 41 39 37 36 34 34
52 47 44 42 43 44 45 57 56 63 61 63 49 39 46 57 60 60 61 66 60 59 57 54 52 49 46 46 46 46 47 47 48 48 45 44 40 38
53 51 48 41 42 43 42 42 49 54 73 65 55 44 42 49 57 60 61 64 63 63 61 58 55 51 49 48 48 48 50 52 52 51 52 50 46 39
56 53 52 46 43 40 45 47 45 46 61 70 59 56 48 54 59 57 60 63 61 62 63 60 56 52 52 51 51 52 54 55 55 54 53 50 47 43
59 57 56 50 49 44 43 46 48 44 47 56 71 65 48 43 55 61 58 59 54 55 59 59 58 56 55 54 55 57 57 53 53 52 53 51 49 47
54 55 58 55 53 49 48 48 49 49 44 53 55 72 50 44 53 61 60 56 53 49 58 62 62 59 60 56 60 61 55 55 53 53 53 50 49 49
55 59 62 62 60 57 53 49 50 52 50 48 56 62 57 50 61 55 59 58 55 50 49 51 62 65 61 64 63 60 56 55 55 55 53 50 49 48
58 56 58 59 62 61 61 61 57 59 53 54 60 58 74 56 58 53 56 51 45 42 53 49 49 54 57 60 60 54 51 51 51 53 53 54 53 50
58 59 59 57 56 54 53 56 62 66 70 56 65 65 74 69 62 62 61 57 50 41 39 43 43 53 52 54 58 55 54 56 56 55 54 53 55 58
59 59 62 61 55 53 53 56 51 53 67 74 70 62 69 69 69 67 63 53 42 39 44 42 38 47 43 46 51 49 51 55 54 51 49 51 53 52
62 63 64 63 57 56 57 58 59 53 49 67 75 73 61 59 59 62 51 44 42 42 42 44 41 41 38 43 45 46 45 55 58 60 60 59 58 54
63 64 63 60 58 58 59 60 61 54 49 52 59 65 54 64 61 55 56 47 41 35 38 44 38 29 23 33 37 38 48 52 59 63 66 66 66 59
65 63 56 55 58 59 60 59 63 49 55 54 54 65 50 57 62 62 46 44 41 39 28 38 36 31 38 42 39 32 29 32 43 56 64 74 70 62
63 58 55 56 52 52 50 64 60 51 61 66 58 44 46 55 50 54 49 50 49 49 35 40 52 55 55 43 40 40 40 40 40 45 53 62 64 60
66 67 66 64 60 54 54 62 60 61 71 64 55 51 48 42 42 37 40 46 46 44 43 46 48 46 49 46 45 37 30 34 41 45 53 60 62 59
64 72 72 68 63 58 65 60 63 77 62 57 52 41 40 40 38 36 40 41 35 27 20 22 40 49 54 50 47 35 32 25 36 40 44 52 54 54
53 62 69 69 65 53 53 68 70 56 55 48 39 39 39 38 33 36 37 33 30 22 21 8 11 22 28 33 37 32 28 27 29 38 44 48 49 49
42 17 42 43 51 74 68 58 52 48 43 36 34 33 33 33 37 37 34 39 29 26 23 19 18 29 28 30 24 24 29 24 33 35 41 45 48 53
49 65 71 74 71 62 54 53 45 41 41 36 30 29 37 37 35 37 42 43 28 28 24 25 31 31 31 27 25 25 26 33 36 37 40 48 52 62
73 74 72 66 56 46 37 36 36 33 25 25 32 35 33 32 41 47 44 39 32 33 30 27 27 28 31 34 30 30 33 38 39 44 46 48 47 55
62 58 49 43 36 32 31 27 21 21 22 21 22 23 30 42 47 50 42 38 32 30 31 29 28 27 34 31 42 37 31 28 32 35 44 45 52 69
54 49 43 38 33 31 28 24 23 19 13 12 15 23 37 46 56 43 39 39 30 34 38 32 29 28 29 42 43 44 37 39 43 37 51 56 60 53
55 49 40 35 37 33 29 24 23 21 16 14 17 26 39 52 55 41 43 43 36 41 41 39 31 33 41 47 44 41 43 33 40 42 38 40 36 51
Wind_Direction_850mb
263 259 256 254 253 250 243 238 235 245 241 242 238 246 245 244 242 243 237 237 234 236 239 243 246 246 245 247 248 252 256 258 257 259 258 259 260 260
261 261 259 257 255 251 246 244 235 236 251 241 245 240 240 240 243 242 240 237 236 236 237 242 244 244 246 252 254 255 257 257 260 260 259 260 258 258
259 259 261 260 256 253 250 247 242 241 236 247 243 248 236 235 239 240 236 235 236 234 237 240 240 242 250 253 254 256 258 260 262 264 267 266 259 252
259 259 259 261 258 254 249 248 247 239 244 245 242 243 232 241 246 243 236 235 232 237 236 239 240 245 251 254 255 257 260 263 264 264 267 265 257 247
255 255 257 258 259 257 253 249 246 243 241 245 246 233 241 232 229 236 233 233 230 232 237 236 240 249 252 255 258 261 263 263 261 259 258 256 248 246
247 248 256 259 259 257 255 251 247 245 241 247 249 236 233 227 229 228 224 229 229 228 238 237 246 250 253 257 258 262 263 262 260 259 256 253 249 249
249 251 256 259 259 255 251 250 249 244 240 240 247 237 223 220 222 216 224 231 232 230 237 241 242 250 256 258 260 262 262 261 260 257 253 249 246 245
252 253 256 257 259 259 253 249 242 246 237 239 247 237 221 220 230 217 217 213 216 230 233 238 240 248 254 258 264 262 258 256 252 251 249 246 244 241
250 251 254 255 256 253 251 248 246 243 242 250 249 247 232 230 227 218 219 219 219 225 230 239 235 246 253 259 262 262 258 252 252 252 250 245 243 241
251 253 256 257 252 249 247 243 243 243 241 246 252 250 239 225 226 222 225 224 221 217 244 238 241 250 253 256 262 261 250 248 245 241 241 239 239 239
255 256 257 258 254 249 249 252 247 248 240 242 248 252 237 232 231 229 211 204 216 224 229 239 250 252 250 255 259 258 245 241 240 238 237 238 240 236
258 259 258 252 249 247 246 247 245 245 240 240 236 235 231 228 221 216 215 209 215 228 229 229 243 241 254 255 260 253 258 240 236 233 235 234 231 228
258 258 252 249 255 249 248 245 241 245 242 245 246 226 232 212 218 209 210 214 215 224 228 220 235 233 244 262 268 261 241 250 240 235 229 227 225 219
255 254 257 259 254 252 245 238 239 243 241 243 223 214 199 197 200 214 217 225 234 239 229 247 249 261 263 254 250 256 254 252 241 232 225 219 217 210
252 257 259 258 257 251 240 242 247 235 227 213 210 198 193 202 206 210 223 235 240 245 253 251 253 258 256 245 239 249 240 237 230 228 220 215 208 205
250 255 251 249 250 238 255 235 225 211 204 202 190 192 196 198 202 213 224 231 238 231 212 260 268 258 248 241 233 230 232 228 222 216 213 208 200 200
272 266 241 233 225 231 217 194 179 180 181 180 182 192 198 207 208 214 219 221 194 183 191 253 251 211 218 219 204 209 213 208 194 195 192 189 189 189
254 208 183 190 166 160 160 159 163 165 171 179 189 198 202 202 207 210 204 178 177 185 189 189 139 133 159 178 199 200 201 197 183 178 181 180 179 179
137 133 132 141 139 134 133 146 151 168 187 191 196 200 205 203 199 182 174 174 178 182 171 155 158 158 153 152 164 176 179 174 168 170 174 174 169 173
110 116 121 126 127 123 129 150 167 173 179 188 198 202 198 190 173 166 165 171 172 168 157 155 148 147 151 140 147 153 160 164 168 167 168 175 180 175
99 100 101 107 116 126 135 139 144 159 171 186 195 193 184 172 168 165 169 168 157 156 151 151 154 161 147 143 136 143 147 168 170 172 163 164 167 180
104 100 102 105 112 116 120 125 129 132 141 160 173 172 171 167 163 165 160 152 149 156 146 142 148 151 151 151 144 146 129 141 150 169 172 184 182 164
97 96 92 95 105 101 99 104 108 92 94 121 147 162 168 163 161 155 157 158 150 150 153 136 141 142 145 148 150 136 131 161 161 145 150 156 168 166